Miscellaneous Local Product
Issued by NWS Hastings, NE

Home | Current Version | Previous Version | Graphics & Text | Print | Product List | Glossary On
Versions: 1 2 3 4 5 6 7 8 9 10 11 12 13 14 15 16 17 18 19 20 21 22 23 24 25 26 27 28 29 30 31 32 33 34 35 36 37 38 39 40 41 42 43 44 45 46 47 48 49 50
000
AXUS43 KGID 192102
MISGRI

GID CWA HOURLY WEATHER ROUNDUP
NATIONAL WEATHER SERVICE HASTINGS NE
300 PM CST SUN FEB 19 2017

NOTE: "FAIR" INDICATES FEW OR NO CLOUDS BELOW 12,000 FEET WITH NO
SIGNIFICANT WEATHER AND/OR OBSTRUCTIONS TO VISIBILITY.

...SOUTH CENTRAL NEBRASKA...

CITY           SKY/WX    TMP DP  RH WIND       PRES   REMARKS
GRAND ISLAND   SUNNY     70  47  43 S20G29    29.72F
HASTINGS       MOSUNNY   69  47  45 S15G23    29.74F
KEARNEY        SUNNY     70  43  37 S25       29.71S
ORD            MOSUNNY   70  41  34 S14G25    29.67F
YORK           PTSUNNY   68  48  49 S21G29    29.76S
AURORA         MOSUNNY   69  47  45 S20G25    29.74S
LEXINGTON      MOSUNNY   73  42  32 S22G30    29.68S
HOLDREGE       CLOUDY    69  41  35 S24G32    29.71S
HEBRON         CLOUDY    66  52  59 S17G24    29.78F

...NEBRASKA PANHANDLE...

CITY           SKY/WX    TMP DP  RH WIND       PRES   REMARKS
CHADRON        CLOUDY    67  30  25 S14       29.53F
ALLIANCE       CLOUDY    61  30  31 SE13      29.58F
SCOTTSBLUFF    CLOUDY    59  33  37 SE9       29.59F
SIDNEY         CLOUDY    64  29  26 S10       29.60F

...WESTERN AND NORTH CENTRAL NEBRASKA...

CITY           SKY/WX    TMP DP  RH WIND       PRES   REMARKS
VALENTINE      CLOUDY    64  36  35 S20       29.57F
AINSWORTH      MOSUNNY   67  42  39 S20       29.60F
ONEILL         CLOUDY    71  45  39 S24G31    29.66S
BROKEN BOW     PTSUNNY   69  44  40 S25G35    29.66F
IMPERIAL       CLOUDY    66  37  34 SE18      29.63F
NORTH PLATTE   MOSUNNY   63  43  48 S9G20     29.67F
MCCOOK         MOSUNNY   75  44  33 S22G31    29.65F

...EASTERN NEBRASKA...

CITY           SKY/WX    TMP DP  RH WIND       PRES   REMARKS
NORFOLK        MOSUNNY   67  50  54 S25G39    29.72F
SO SIOUX CITY  MOSUNNY   66  52  60 S18G29    29.76F
TEKAMAH        MOSUNNY   69  50  50 S18       29.79F
COLUMBUS       MOSUNNY   70  52  52 S21G29    29.76F
ALBION         CLOUDY    70  47  43 S21G29    29.71F
OMAHA EPPLEY   CLOUDY    69  48  47 S18       29.81F
OFFUTT AFB     SUNNY     71  51  50 S17       29.81F
MILLARD        MOSUNNY   72  52  49 S14       29.81S
LINCOLN        MOSUNNY   73  49  42 S22G32    29.78F
NEBRASKA CITY  MOSUNNY   71  46  40 S21       29.83F
BEATRICE       MOSUNNY   71  54  54 S17G24    29.81S
FALLS CITY     SUNNY     71  52  50 S17G30    29.85F

...NORTHERN KANSAS...

CITY           SKY/WX    TMP DP  RH WIND       PRES   REMARKS
GOODLAND       SUNNY     66  43  43 S25G35    29.66F
HILL CITY      SUNNY     77  44  30 S21G32    29.70F
NORTON         CLEAR     73  37  27 S16       29.70F
PHILLIPSBURG   SUNNY     75  45  33 SE15G23   29.73S
SMITH CENTER   SUNNY     70  46  43 S18G24    29.75F
HAYS           SUNNY     71  49  45 S18       29.73F
RUSSELL        MOSUNNY   70  50  49 S22G28    29.74F
CONCORDIA      MOSUNNY   61  51  70 SE17      29.81F
SALINA         MOSUNNY   65  52  62 S18       29.83S
TOPEKA         PTSUNNY   65  55  70 S14       29.88S



USA.gov is the U.S. government's official web portal to all federal, state and local government web resources and services.